Showing default

GONETS-M 23, 54150

Orbit data source: Space-Track

GONETS-M 23, 54150 is a payload satellite owned by Gonets (CIS) in LEO that was launched on Sat, 22 Oct 2022 UTC via a SOYUZ-2-1B launch vehicle from the Vostochny Cosmodrome (VOSTO). Payload-class satellites include a variety of spacecraft equipped with specific instruments for various scientific and technological missions. These include communications satellites like Starlink; space stations such as the ISS; scientific satellites like the Hubble; Earth observation satellites from companies like Planet Labs, Umbra, and HawkEye 360; GPS; miniature CubeSats for education and research; and military/defense satellites.

Loading next visibility...
Identifier
54150, 2022-139A
Orbit
LEO
Country
Flag of CISCIS
Related business
Manufacturer
Resehetnev ISS
Mission
Operational Commercial Communications
Bus & Motor
STRELA-3M, Unknown motor
Mass
280 kg wet, 280 kg dry
Launch date (UTC)
2022-10-22 (4 years ago)
Launch vehicle
SOYUZ-2-1B
Launch site
Vostochny Cosmodrome (VOSTO)
Object type
Payload
Rocket body
Debris
Shape & HBR
Cyl + 1 Ant, 3.5 m
Radar Cross Section
1.583 m², Large (>1 m²)

Expand to show TLE details & history
Last TLE update: 1 day ago

TLE from 1 day ago
0 GONETS-M 23
1 54150U 22139A   26172.52910718  .00000039  00000-0  21093-3 0  9993
2 54150  82.5072 345.5955 0021060 209.8949 150.0930 12.42891026166182
Epoch: 2026-06-21T12:41Z
TLE epoch observation values (Epoch: 2026-06-21T12:41:54.860Z)
Latitude
0.00005°
Longitude
-114.61115°
Altitude
1,511.454 km
Speed
7.103 km/s
True Right ascension
23h 02m 22s
True Declination
0° 00' 00"
Sunlit
Object was in daylight at epoch
Visualization orbit readout
Latitude
Unknown
Longitude
Unknown
Altitude
Unknown
Speed
Unknown
Apparent Right ascension
Unknown
Apparent Declination
Unknown
Sunlit
N/A
Visualization observer readout
Local Sidereal Time
00:51:05
Azimuth
Unknown
Elevation
Unknown
Doppler factor
Unknown
Orbital elements
Apogee altitude
1,508.296 km
Perigee altitude
1,475.149 km
Semi-major axis
7,869.86 km
Eccentricity
0.00211
Inclination
82.5072°
RAAN
345.5955°
Arg. of periapsis
209.8949°
True anomaly
150.21305°
Mean anomaly
150.093°
Eccentric anomaly
150.15305°
Mean motion
3.1088 °/min
Orbital period
115.8 mins
BSTAR
0.00021093
Loading maneuver chart data...
Computing Atmospheric mass density...
Loading historical data...
Loading historical data...
Loading historical data...
Loading historical data...
Loading historical data...
Loading historical data...
Loading historical data...
Other satellites on launch #139 in the year 2022 (2022-10-22 UTC)

Documentation

Showing up to 5 results
|